[TLELIST] Archives

 

[list_settings.list_name] Current TLEs

August 31st 2021 PDT

HST NO TLE 9997 NO TLE ISS (ZARYA) 1 25544U 98067A 21243.53070377 .00004799 00000-0 96598-4 0 9994 2 25544 51.6438 330.1537 0003021 336.9881 120.0148 15.48572051300271 CXO 1 25867U 99040B 21244.80329788 .00000699 00000-0 00000-0 0 9992 2 25867 53.2663 252.0422 8439819 226.9951 0.6188 0.37805295 10731 ____________________________________________________________________ These 2-Line Elements (TLEs) are direct from DoD/ USSTRATCOM/ US Space Command with permission. Updates are provided automatically d ...Continue Reading

[list_settings.list_name] Current TLEs

August 30th 2021 PDT

HST 1 20580U 90037B 21241.90943567 .00001073 00000-0 53883-4 0 9999 2 20580 28.4703 299.0194 0002853 130.3152 34.4726 15.09719038522376 ISS (ZARYA) 1 25544U 98067A 21242.37462556 .00004633 00000-0 93599-4 0 9994 2 25544 51.6443 335.8683 0002943 333.1052 154.6983 15.48559540300090 CXO 1 25867U 99040B 21244.80230968 .00000699 00000-0 00000-0 0 9993 2 25867 53.2663 252.0423 8439821 226.9952 0.4844 0.37805133 10723 ____________________________________________________________________ These 2-Line ...Continue Reading

[list_settings.list_name] Current TLEs

August 29th 2021 PDT

HST 1 20580U 90037B 21240.64733677 .00001142 00000-0 58099-4 0 9999 2 20580 28.4704 307.3710 0002899 117.6718 14.0321 15.09717785521911 ISS (ZARYA) 1 25544U 98067A 21241.46646257 .00003973 00000-0 81474-4 0 9990 2 25544 51.6449 340.3575 0002917 329.7762 131.8568 15.48547865299952 CXO 1 25867U 99040B 21242.15873589 .00000558 00000-0 00000-0 0 9995 2 25867 53.3253 252.1550 8435777 226.9567 0.6465 0.37804720 10721 ____________________________________________________________________ These 2-Line ...Continue Reading

[list_settings.list_name] Current TLEs

August 28th 2021 PDT

HST 1 20580U 90037B 21239.65509544 .00000670 00000-0 29527-4 0 9991 2 20580 28.4705 313.9367 0002911 107.8617 20.3420 15.09714089521764 ISS (ZARYA) 1 25544U 98067A 21240.49596037 .00002494 00000-0 54235-4 0 9994 2 25544 51.6457 345.1551 0002718 325.3619 122.3730 15.48533207299805 CXO 1 25867U 99040B 21242.15873589 .00000558 00000-0 00000-0 0 9995 2 25867 53.3253 252.1550 8435777 226.9567 0.6465 0.37804720 10721 ____________________________________________________________________ These 2-Line ...Continue Reading

[list_settings.list_name] Current TLEs

August 27th 2021 PDT

HST 1 20580U 90037B 21238.52298655 .00000650 00000-0 28343-4 0 9997 2 20580 28.4707 321.4280 0002920 96.7069 346.3229 15.09713036521591 ISS (ZARYA) 1 25544U 98067A 21238.82120988 .00001705 00000-0 39706-4 0 9996 2 25544 51.6458 353.4319 0002742 318.3374 146.9992 15.48520491299541 CXO 1 25867U 99040B 21242.15849359 .00000558 00000-0 00000+0 0 9992 2 25867 53.3255 252.1550 8435760 226.9566 0.6135 0.37805473 21850 ____________________________________________________________________ These 2-Line ...Continue Reading

[list_settings.list_name] Current TLEs

August 26th 2021 PDT

HST 1 20580U 90037B 21237.94286674 .00000619 00000-0 26420-4 0 9999 2 20580 28.4708 325.2667 0002922 90.8138 73.0347 15.09712428521507 ISS (ZARYA) 1 25544U 98067A 21238.36343318 .00001712 00000-0 39845-4 0 9991 2 25544 51.6457 355.6945 0002728 315.8021 115.8980 15.48518607299474 CXO 1 25867U 99040B 21239.51390295 .00000463 00000-0 00000-0 0 9994 2 25867 53.3848 252.2626 8430381 226.9263 0.6259 0.37804393 10700 ____________________________________________________________________ These 2-Line ...Continue Reading

[list_settings.list_name] Current TLEs

August 25th 2021 PDT

HST 1 20580U 90037B 21236.67795811 .00000583 00000-0 24285-4 0 9993 2 20580 28.4708 333.6368 0002924 78.3787 37.1094 15.09711225521314 ISS (ZARYA) 1 25544U 98067A 21237.38973297 .00001768 00000-0 40876-4 0 9994 2 25544 51.6460 0.5085 0002745 311.1101 88.9633 15.48514705299320 CXO 1 25867U 99040B 21239.51390295 .00000463 00000-0 00000-0 0 9994 2 25867 53.3848 252.2626 8430381 226.9263 0.6259 0.37804393 10700 ____________________________________________________________________ These 2-Line ...Continue Reading

[list_settings.list_name] Current TLEs

August 24th 2021 PDT

HST 1 20580U 90037B 21235.75570616 .00000563 00000-0 23045-4 0 9996 2 20580 28.4709 339.7393 0002913 69.1707 63.9795 15.09710459521175 ISS (ZARYA) 1 25544U 98067A 21236.23088793 .00001584 00000-0 37499-4 0 9998 2 25544 51.6457 6.2366 0002787 307.4395 108.2221 15.48508851299144 CXO 1 25867U 99040B 21236.87031049 .00000457 00000-0 00000-0 0 9992 2 25867 53.4249 252.3479 8424126 226.9202 0.7418 0.37804502 10706 ____________________________________________________________________ These 2-Line ...Continue Reading

[list_settings.list_name] Current TLEs

August 23rd 2021 PDT

HST 1 20580U 90037B 21234.69341718 .00000580 00000-0 24110-4 0 9990 2 20580 28.4709 346.7686 0002895 58.6027 49.6081 15.09709791521014 ISS (ZARYA) 1 25544U 98067A 21235.19905397 .00001179 00000-0 30012-4 0 9994 2 25544 51.6451 11.3372 0002756 302.8047 116.9734 15.48503350298986 CXO 1 25867U 99040B 21236.87031049 .00000457 00000-0 00000-0 0 9992 2 25867 53.4249 252.3479 8424126 226.9202 0.7418 0.37804502 10706 ____________________________________________________________________ These 2-Line ...Continue Reading

[list_settings.list_name] Current TLEs

August 22nd 2021 PDT

HST 1 20580U 90037B 21234.04245522 .00000589 00000-0 24605-4 0 9993 2 20580 28.4710 351.0761 0002888 51.8140 111.4350 15.09709379521189 ISS (ZARYA) 1 25544U 98067A 21234.15347222 -.00001305 00000-0 -15855-4 0 9997 2 25544 51.6448 16.5073 0002669 299.7348 47.4890 15.48497532298815 CXO 1 25867U 99040B 21234.22544053 .00000499 00000-0 00000-0 0 9999 2 25867 53.4572 252.4314 8419231 226.9238 0.6366 0.37808494 10686 ____________________________________________________________________ These 2-Line ...Continue Reading
  • This mailing list is a public mailing list - anyone may join or leave, at any time.
  • This mailing list is announce-only.

International Space Station (ISS) / Hubble Space Telescope (HST) / Chandra X-Ray Observatory Orbital Data via EMAIL

Privacy Policy:

Private list